Погода в Юшкозере

Россия / Республика Карелия     64°44′53″N   32°06′13″E
темп.,
°C
ветер,
м/с
пор.,
м/с
влажн.,
%
обл.,
%
осадки,
мм/ч
давл.,
гПа
погр.,
м
19 сентября, вс
вс1900:00+4вюв2387100 0.1 1032113
03:00+4вюв1184100 0.1 103336
06:00+4в1181100 0.0 103327
09:00+5в237296 0.0 1033253
12:00+8в235853 0.0 10331201
15:00+7в3362100 0.1 1034852
18:00+6вюв2473100 0.1 1034180
21:00+5в247788 0.1 1034135
20 сентября, пн
пн2000:00+2в22885 0.0 103629
03:00+1в22925 0.0 103614
06:000всв11945 0.0 103711
09:00+4в23785 0.0 1037209
12:00+8вюв346195 0.0 10361279
15:00+7вюв2460100 0.0 10351109
18:00+6в2464100 0.0 1034117
21:00+5вюв2671100 0.0 1034183
21 сентября, вт
вт2100:00+4вюв367298 0.0 1033259
03:00+4юв2466100 0.0 1032138
06:00+3вюв226790 0.0 103167
09:00+5юв245996 0.0 10301095
12:00+6юв2354100 0.0 10291178
15:00+7юв225372 0.0 10281279
18:00+5вюв1265100 0.0 102717
21:00+2юв227870 0.0 102715
22 сентября, ср
ср2200:00+1ююв11865 0.0 102711
03:000ююв11915 0.0 102710
06:000ююв22922 0.0 102613
09:00+3ю2473100 0.0 1025210
12:00+7ю3561100 0.0 1024665
15:00+9ю355237 0.0 1022884
18:00+6ю256826 0.0 102198
21:00+3ю388370 0.0 1020156
23 сентября, чт
чт2300:00+2ю3991100 0.0 1018183
03:00+2ююв399447 0.0 1016200
06:00+1ююв3995100 0.0 1014204
09:00+4ююв41182100 0.0 1011330
12:00+8ююв5964100 0.0 1009667
15:00+10ююв486087 0.0 10061006
18:00+8юв5107167 0.0 1004595
21:00+7ююв51178100 0.0 1002599